Location: Chemnitz
(49.5500°N, 11.5830°E)
Time: 21:29:22
(UTC+01:00)

ISS - Pass Details

Date: 17 November 2017
Orbit: 402 x 407 km, 51.6° (Epoch: 24 November)

Event Time Altitude Azimuth Distance (km) Brightness Sun altitude
Exits shadow 04:48:19 14° 145° (SE) 1,226 -1.0 -25.7°
Drops below altitude 10° 04:48:55 10° 141° (SE) 1,450 -0.6 -25.6°
Sets 04:51:03 0° 133° (SE) 2,306 0.7 -25.2°
